Oceana NAS, VA

6:39 PM EDT on April 29, 2017 (GMT -0400)
Oceana Naval Air Station

Weather History for KNTU - October, 2013

Change the Weather History Date:

Monday, October 28, 2013

  Actual Average Record
Temperature  
Mean Temperature 55 °F -  
Max Temperature 66 °F 64 °F 84 °F (2014)
Min Temperature 44 °F 46 °F 36 °F (1997)
Degree Days  
Heating Degree Days 10    
Growing Degree Days 5 (Base 50)    
Moisture  
Dew Point 47 °F    
Average Humidity 77    
Maximum Humidity 97    
Minimum Humidity 50    
Precipitation  
Precipitation 0.00 in - - ()
Sea Level Pressure  
Sea Level Pressure 30.22 in    
Wind  
Wind Speed 3 mph (SSW)    
Max Wind Speed 9 mph    
Max Gust Speed -    
Visibility 10 miles    
Events Fog    
Averages and records for this station are not official NWS values.
T = Trace of Precipitation, MM = Missing Value Source: NWS Daily Summary

Daily Weather History Graph

Daily Weather History Graph

Search for Another Location

Airport or City:

Trip Planner

Search our weather history database for the weather conditions in past years. The results will help you decide how hot, cold, wet, or windy it might be!

Date:

Astronomy

Oct. 28, 2013 Rise Set
Actual Time 7:24 AM EDT 6:11 PM EDT
Civil Twilight 6:57 AM EDT 6:37 PM EDT
Nautical Twilight 6:27 AM EDT 7:08 PM EDT
Astronomical Twilight 5:56 AM EDT 7:38 PM EDT
Moon 1:23 AM EDT (10/28) 2:43 PM EDT (10/28)
Length of Visible Light 11h 40m
Length of Day
10h 46m
Waning Crescent, 34% of the Moon is Illuminated
Oct 28
Waning Crescent
Nov 3
New
Nov 10
First Quarter
Nov 17
Full
Nov 25
Last Quarter

Hourly Weather History & Observations

Time (EDT) Temp. Windchill Dew Point Humidity Pressure Visibility Wind Dir Wind Speed Gust Speed Precip Events Conditions
12:56 AM 48.9 °F - 45.0 °F 86% 30.16 in 10.0 mi SW 4.6 mph - N/A   Clear
1:56 AM 46.9 °F - 44.1 °F 90% 30.16 in 10.0 mi Calm Calm - N/A   Clear
2:56 AM 46.9 °F - 44.1 °F 90% 30.16 in 10.0 mi Calm Calm - N/A   Clear
3:56 AM 46.0 °F 43.9 °F 44.1 °F 93% 30.16 in 10.0 mi SW 4.6 mph - N/A   Clear
4:56 AM 48.0 °F - 45.0 °F 89% 30.16 in 10.0 mi Calm Calm - N/A   Partly Cloudy
5:56 AM 45.0 °F - 43.0 °F 93% 30.18 in 10.0 mi Calm Calm - N/A   Partly Cloudy
6:56 AM 44.1 °F - 42.1 °F 93% 30.20 in 10.0 mi Calm Calm - N/A   Scattered Clouds
7:56 AM 44.1 °F 42.5 °F 42.1 °F 93% 30.22 in 10.0 mi SW 3.5 mph - N/A Fog Patches of Fog
8:56 AM 52.0 °F - 50.0 °F 93% 30.24 in 10.0 mi Calm Calm - N/A   Mostly Cloudy
9:56 AM 59.0 °F - 50.0 °F 72% 30.25 in 10.0 mi SW 8.1 mph - N/A   Mostly Cloudy
10:56 AM 64.0 °F - 48.9 °F 58% 30.26 in 10.0 mi SSW 8.1 mph - N/A   Mostly Cloudy
11:56 AM 66.0 °F - 48.0 °F 52% 30.26 in 10.0 mi SSW 8.1 mph - N/A   Overcast
12:56 PM 64.9 °F - 48.0 °F 54% 30.23 in 10.0 mi South 5.8 mph - N/A   Overcast
1:56 PM 66.9 °F - 48.9 °F 52% 30.22 in 10.0 mi South 6.9 mph - N/A   Overcast
2:56 PM 66.0 °F - 46.9 °F 50% 30.20 in 10.0 mi SSW 9.2 mph - N/A   Overcast
3:56 PM 66.0 °F - 48.9 °F 54% 30.20 in 10.0 mi South 6.9 mph - N/A   Overcast
4:56 PM 64.9 °F - 48.9 °F 56% 30.21 in 10.0 mi South 6.9 mph - N/A   Mostly Cloudy
5:56 PM 63.0 °F - 48.9 °F 60% 30.21 in 10.0 mi South 4.6 mph - N/A   Mostly Cloudy
6:56 PM 60.1 °F - 48.9 °F 67% 30.24 in 10.0 mi South 3.5 mph - N/A   Scattered Clouds
7:56 PM 55.0 °F - 50.0 °F 83% 30.25 in 10.0 mi Calm Calm - N/A   Mostly Cloudy
8:56 PM 52.0 °F - 48.9 °F 89% 30.25 in 10.0 mi Calm Calm - N/A   Mostly Cloudy
9:56 PM 48.9 °F - 48.0 °F 97% 30.27 in 10.0 mi Calm Calm - N/A   Scattered Clouds
10:56 PM 48.0 °F - 46.9 °F 96% 30.27 in 9.0 mi Calm Calm - N/A   Scattered Clouds
11:56 PM 48.9 °F - 46.9 °F 93% 30.27 in 8.0 mi Calm Calm - N/A   Scattered Clouds